Hourly Data Report for October 06, 2017

All times are specified in Local Standard Time (LST). Add 1 hour to adjust for Daylight Saving Time where and when it is observed.

FORT LIARD
NORTHWEST TERRITORIES

60°14'00.000" N
123°28'00.000" W
213.40 m
2201579
71497
WJL

Download Data

Hourly Data (October 2017)
Hourly Data Report for October 6, 2017
Temp Definition
°C
Dew Point Temp Definition
°C
Rel Hum Definition
%
Wind Dir Definition
10's deg

Wind Spd Definition
km/h
Visibility Definition
km
Stn Press Definition
kPa
Hmdx Definition


Wind Chill Definition


Weather Definition


TIME
00:00 11.7 3.3 56 24 12   97.10     LegendNANA
01:00 12.2 2.5 51 23 13   97.01     LegendNANA
02:00 10.1 2.0 57 22 8   96.93     LegendNANA
03:00 9.8 1.8 57 22 9   96.83     LegendNANA
04:00 11.9 2.3 52 23 12   96.72     LegendNANA
05:00 11.8 2.0 51 23 11   96.65     LegendNANA
06:00 10.6 2.5 57 22 10   96.62     LegendNANA
07:00 9.8 2.7 61 22 13   96.53     LegendNANA
08:00 11.2 2.5 55 24 17   96.44     LegendNANA
09:00 10.2 2.9 60 23 18   96.38     LegendNANA
10:00 10.6 2.9 59 24 17   96.37     LegendNANA
11:00 11.5 2.8 55 24 14   96.36     LegendNANA
12:00 12.5 2.5 50 24 13   96.36     LegendNANA
13:00 14.2 1.7 43 24 9   96.37     LegendNANA
14:00 15.4 0.9 37 28 8   96.35     LegendNANA
15:00 15.1 0.8 38 26 8   96.35     LegendNANA
16:00 13.6 1.9 45 23 17   96.37     LegendNANA
17:00 12.3 2.8 52 23 14   96.42     LegendNANA
18:00 9.6 5.8 77 6 7   96.53     LegendNANA
19:00 8.5 7.0 91 8 8   96.57     LegendNANA
20:00 7.8 7.1 96 29 4   96.63     LegendNANA
21:00 7.5 7.1 97 5 8   96.70     LegendNANA
22:00 7.2 6.7 97 9 6   96.74     LegendNANA
23:00 7.1 6.7 97 7 4   96.82     LegendNANA

Notes on Data Quality.

Legend

  • E = Estimated
  • M = Missing
  • NA = Not Available
  • ‡ = Partner data that is not subject to review by the National Climate Archives
Date modified: